Weather History for KGNV - December, 2013

Change the Weather History Date:

Sunday, December 29, 2013

  Actual Average Record
Temperature  
Mean Temperature 64 °F 54 °F  
Max Temperature 71 °F 66 °F 82 °F (1946)
Min Temperature 57 °F 43 °F 23 °F (1961)
Degree Days  
Heating Degree Days 1 11  
Month to date heating degree days 155 273  
Since 1 July heating degree days 248 434  
Cooling Degree Days 0 0  
Month to date cooling degree days 55 24  
Year to date cooling degree days 2880 2640  
Growing Degree Days 14 (Base 50)    
Moisture  
Dew Point 65 °F    
Average Humidity 94    
Maximum Humidity 100    
Minimum Humidity 87    
Precipitation  
Precipitation 1.32 in 0.07 in 3.40 in (1983)
Month to date precipitation 3.79 2.22  
Year to date precipitation 47.08 47.15  
Snow  
Snow 0.00 in 0.00 in 0.00 in ()
Month to date snowfall 0.0 0.0  
Since 1 July snowfall 0.0 0.0  
Snow Depth 0.00 in    
Sea Level Pressure  
Sea Level Pressure 29.96 in    
Wind  
Wind Speed 6 mph (SW)    
Max Wind Speed 16 mph    
Max Gust Speed 22 mph    
Visibility 6 miles    
Events Fog , Rain , Thunderstorm    
T = Trace of Precipitation, MM = Missing Value Source: NWS Daily Summary

Daily Weather History Graph

Daily Weather History Graph

Search for Another Location

Airport or City:

Trip Planner

Search our weather history database for the weather conditions in past years. The results will help you decide how hot, cold, wet, or windy it might be!

Date:

Astronomy

Dec. 29, 2013 Rise Set
Actual Time 7:23 AM EST 5:39 PM EST
Civil Twilight 6:57 AM EST 6:05 PM EST
Nautical Twilight 6:27 AM EST 6:35 PM EST
Astronomical Twilight 5:58 AM EST 7:04 PM EST
Moon 4:11 AM EST (12/29) 3:11 PM EST (12/29)
Length of Visible Light 11h 08m
Length of Day
10h 15m
Waning Crescent, 11% of the Moon is Illuminated
Dec 29
Waning Crescent
Jan 1
New
Jan 7
First Quarter
Jan 15
Full
Jan 24
Last Quarter

Hourly Weather History & Observations

Time (EST) Temp. Dew Point Humidity Pressure Visibility Wind Dir Wind Speed Gust Speed Precip Events Conditions
12:36 AM 68.0 °F 66.0 °F 93% 29.98 in 10.0 mi SE 11.5 mph - N/A   Partly Cloudy
12:53 AM 68.0 °F 66.0 °F 93% 29.97 in 10.0 mi SE 10.4 mph - N/A   Partly Cloudy
1:17 AM 69.1 °F 66.0 °F 90% 29.97 in 10.0 mi SSE 10.4 mph - N/A   Mostly Cloudy
1:53 AM 69.1 °F 66.9 °F 93% 29.95 in 10.0 mi SSE 9.2 mph - N/A   Overcast
2:53 AM 70.0 °F 66.9 °F 90% 29.94 in 10.0 mi SSE 10.4 mph 19.6 mph N/A   Overcast
3:53 AM 70.0 °F 66.9 °F 90% 29.95 in 10.0 mi SSE 10.4 mph - N/A   Overcast
4:25 AM 70.0 °F 68.0 °F 93% 29.94 in 10.0 mi SSE 6.9 mph - N/A   Overcast
4:53 AM 70.0 °F 68.0 °F 93% 29.93 in 10.0 mi SSE 8.1 mph - N/A   Overcast
5:25 AM 69.1 °F 66.9 °F 93% 29.92 in 10.0 mi SSE 8.1 mph - N/A   Mostly Cloudy
5:53 AM 70.0 °F 68.0 °F 93% 29.92 in 10.0 mi SSE 5.8 mph - N/A   Overcast
6:04 AM 70.0 °F 68.0 °F 93% 29.94 in 10.0 mi South 6.9 mph - N/A   Overcast
6:53 AM 70.0 °F 68.0 °F 93% 29.93 in 10.0 mi South 4.6 mph - N/A   Mostly Cloudy
7:21 AM 70.0 °F 68.0 °F 93% 29.95 in 2.5 mi SW 4.6 mph - 0.06 in Rain Rain
7:24 AM 70.0 °F 68.0 °F 93% 29.95 in 1.5 mi West 9.2 mph - 0.07 in Rain Heavy Rain
7:40 AM 70.0 °F 69.1 °F 97% 29.95 in 1.2 mi SSW 10.4 mph - 0.44 in Rain Heavy Rain
7:48 AM 69.8 °F 69.8 °F 100% 29.95 in 3.0 mi SSW 8.1 mph - 0.54 in Rain Light Rain
7:53 AM 70.0 °F 69.1 °F 97% 29.95 in 9.0 mi SSW 6.9 mph - 0.54 in   Overcast
8:12 AM 70.0 °F 69.1 °F 97% 29.97 in 10.0 mi SW 5.8 mph - 0.01 in   Overcast
8:24 AM 70.0 °F 69.1 °F 97% 29.97 in 10.0 mi SW 4.6 mph - 0.01 in   Overcast
8:44 AM 70.0 °F 69.1 °F 97% 29.98 in 1.5 mi SSW 5.8 mph - 0.03 in Rain Heavy Rain
8:47 AM 69.8 °F 69.8 °F 100% 29.99 in 0.8 mi SW 8.1 mph - 0.07 in Rain , Thunderstorm Heavy Thunderstorms and Rain
8:53 AM 70.0 °F 68.0 °F 93% 29.99 in 0.8 mi WSW 15.0 mph 21.9 mph 0.23 in Rain , Thunderstorm Heavy Thunderstorms and Rain
9:05 AM 69.1 °F 68.0 °F 96% 30.00 in 1.0 mi WSW 9.2 mph - 0.35 in Rain , Thunderstorm Heavy Rain
9:25 AM 69.1 °F 68.0 °F 96% 29.99 in 2.5 mi West 5.8 mph - 0.52 in Rain , Thunderstorm Heavy Thunderstorms and Rain
9:30 AM 69.1 °F 68.0 °F 96% 30.00 in 3.0 mi West 6.9 mph - 0.53 in Rain , Thunderstorm Thunderstorms and Rain
9:38 AM 69.1 °F 68.0 °F 96% 30.00 in 10.0 mi West 8.1 mph - 0.54 in Rain Light Rain
9:53 AM 69.1 °F 66.9 °F 93% 29.99 in 10.0 mi West 8.1 mph - 0.54 in   Mostly Cloudy
10:41 AM 70.0 °F 66.9 °F 90% 30.00 in 10.0 mi Calm Calm - 0.00 in Rain Light Rain
10:53 AM 69.1 °F 66.9 °F 93% 29.99 in 10.0 mi SW 3.5 mph - 0.00 in Rain Light Rain
11:53 AM 70.0 °F 66.9 °F 90% 29.96 in 10.0 mi SSW 8.1 mph - 0.00 in   Overcast
12:08 PM 70.0 °F 66.9 °F 90% 29.96 in 10.0 mi SW 11.5 mph 19.6 mph N/A   Overcast
12:53 PM 70.0 °F 66.9 °F 90% 29.94 in 10.0 mi WSW 11.5 mph - 0.00 in   Overcast
1:29 PM 69.1 °F 66.9 °F 93% 29.93 in 8.0 mi West 11.5 mph - 0.00 in Rain Light Rain
1:53 PM 69.1 °F 66.9 °F 93% 29.92 in 9.0 mi West 9.2 mph - 0.00 in Rain Light Rain
2:12 PM 68.0 °F 66.0 °F 93% 29.92 in 9.0 mi WNW 11.5 mph - 0.00 in   Overcast
2:30 PM 66.9 °F 64.9 °F 93% 29.92 in 7.0 mi West 9.2 mph - 0.00 in Rain Light Rain
2:53 PM 66.9 °F 64.9 °F 93% 29.92 in 4.0 mi West 5.8 mph - 0.00 in Rain Light Rain
3:07 PM 66.9 °F 64.0 °F 90% 29.92 in 7.0 mi NW 5.8 mph - 0.01 in Rain Light Rain
3:53 PM 68.0 °F 64.0 °F 87% 29.91 in 10.0 mi Calm Calm - 0.01 in   Overcast
4:53 PM 68.0 °F 64.9 °F 90% 29.92 in 10.0 mi Calm Calm - N/A   Mostly Cloudy
5:53 PM 64.9 °F 64.0 °F 97% 29.94 in 10.0 mi Calm Calm - N/A   Partly Cloudy
6:15 PM 63.0 °F 63.0 °F 100% 29.94 in 1.5 mi Calm Calm - N/A   Clear
6:18 PM 62.1 °F 62.1 °F 100% 29.95 in 0.8 mi Calm Calm - N/A   Mist
6:53 PM 62.1 °F 61.0 °F 96% 29.95 in 0.2 mi Calm Calm - N/A Fog Fog
7:00 PM 62.1 °F 61.0 °F 96% 29.96 in 0.5 mi Calm Calm - N/A Fog Fog
7:40 PM 60.1 °F 60.1 °F 100% 29.97 in 0.2 mi Calm Calm - N/A Fog Fog
7:53 PM 60.1 °F 60.1 °F 100% 29.98 in 0.5 mi Calm Calm - N/A Fog Fog
8:12 PM 60.1 °F 60.1 °F 100% 29.99 in 1.2 mi Calm Calm - N/A   Partly Cloudy
8:22 PM 59.0 °F 59.0 °F 100% 29.99 in 0.8 mi Calm Calm - N/A   Mist
8:27 PM 59.0 °F 59.0 °F 100% 29.99 in 1.0 mi West 3.5 mph - N/A   Mist
8:32 PM 57.9 °F 57.9 °F 100% 30.00 in 2.0 mi West 3.5 mph - N/A   Partly Cloudy
8:44 PM 57.9 °F 57.9 °F 100% 30.00 in 7.0 mi West 4.6 mph - N/A   Clear
8:53 PM 57.9 °F 57.9 °F 100% 29.99 in 10.0 mi NW 3.5 mph - N/A   Clear
9:53 PM 57.9 °F 57.0 °F 97% 30.01 in 10.0 mi NW 4.6 mph - N/A   Clear
10:53 PM 57.9 °F 55.9 °F 93% 30.02 in 10.0 mi NW 6.9 mph - N/A   Clear
11:53 PM 57.0 °F 55.0 °F 93% 30.02 in 10.0 mi NW 5.8 mph - N/A   Clear